When you browse on this site, cookies collect data to enhance your experience and personalize the content and advertising you see.
Visit our Privacy Policy to learn more. By continuing to use the site, you agree to this use of cookies and data.
  • In Czech Republic
  • List of Countries
  • For 7 days
  • Water Temperature
  • Weather Map
  • Weather Widgets
  • user-avatar
    Login

    Hourly Weather Naftalan

    Today, 23 August, Friday

    Time Temperature Precipitation Wind Pressure Humidity
    00:00 +26°C° 0 mm 2 mps 760 mmHg 77%
    01:00 +26°C° 0 mm 2 mps 760 mmHg 74%
    02:00 +26°C° 0 mm 2 mps 760 mmHg 71%
    03:00 +26°C° 0 mm 3 mps 760 mmHg 68%
    04:00 +27°C° 0 mm 2 mps 760 mmHg 66%
    05:00 +27°C° 0 mm 2 mps 760 mmHg 63%
    06:00 +28°C° 0 mm 2 mps 760 mmHg 61%
    07:00 +30°C° 0 mm 2 mps 761 mmHg 53%
    08:00 +32°C° 0 mm 2 mps 761 mmHg 46%
    09:00 +35°C° 0 mm 2 mps 761 mmHg 39%
    10:00 +36°C° 0 mm 3 mps 760 mmHg 36%
    11:00 +37°C° 0 mm 3 mps 760 mmHg 34%
    12:00 +37°C° 0 mm 4 mps 760 mmHg 32%
    13:00 +37°C° 0 mm 4 mps 760 mmHg 33%
    14:00 +37°C° 0 mm 5 mps 759 mmHg 34%
    15:00 +37°C° 0 mm 5 mps 759 mmHg 35%
    16:00 +35°C° 0 mm 5 mps 759 mmHg 41%
    17:00 +34°C° 0 mm 5 mps 759 mmHg 48%
    18:00 +33°C° 0 mm 5 mps 759 mmHg 54%
    19:00 +30°C° 0 mm 4 mps 759 mmHg 59%
    20:00 +29°C° 0 mm 4 mps 759 mmHg 64%
    21:00 +28°C° 0 mm 3 mps 760 mmHg 69%
    22:00 +28°C° 0 mm 3 mps 760 mmHg 70%
    23:00 +28°C° 0 mm 3 mps 760 mmHg 71%

    Tomorrow, 24 August, Saturday

    Time Temperature Precipitation Wind Pressure Humidity
    00:00 +27°C° 0 mm 3 mps 759 mmHg 72%
    01:00 +27°C° 0 mm 2 mps 759 mmHg 75%
    02:00 +27°C° 0 mm 2 mps 759 mmHg 77%
    03:00 +26°C° 0 mm 2 mps 759 mmHg 80%
    04:00 +27°C° 0 mm 2 mps 760 mmHg 78%
    05:00 +27°C° 0 mm 1 mps 760 mmHg 76%
    06:00 +27°C° 0 mm 1 mps 760 mmHg 74%
    07:00 +29°C° 0 mm 1 mps 760 mmHg 63%
    08:00 +32°C° 0 mm 1 mps 760 mmHg 53%
    09:00 +34°C° 0 mm 1 mps 760 mmHg 42%
    10:00 +36°C° 0 mm 2 mps 760 mmHg 39%
    11:00 +37°C° 0 mm 3 mps 759 mmHg 35%
    12:00 +38°C° 0 mm 4 mps 759 mmHg 31%
    13:00 +39°C° 0 mm 5 mps 759 mmHg 33%
    14:00 +38°C° 0 mm 6 mps 759 mmHg 35%
    15:00 +38°C° 0 mm 6 mps 758 mmHg 37%
    16:00 +35°C° 0 mm 6 mps 758 mmHg 45%
    17:00 +34°C° 0 mm 6 mps 758 mmHg 54%
    18:00 +32°C° 0 mm 5 mps 759 mmHg 62%
    19:00 +32°C° 0 mm 5 mps 759 mmHg 63%
    20:00 +30°C° 0 mm 4 mps 759 mmHg 63%
    21:00 +30°C° 0 mm 3 mps 760 mmHg 64%
    22:00 +29°C° 0 mm 3 mps 760 mmHg 65%
    23:00 +28°C° 0 mm 2 mps 760 mmHg 67%

    Day after tomorrow, 25 August, Sunday

    Time Temperature Precipitation Wind Pressure Humidity
    00:00 +27°C° 0 mm 1 mps 760 mmHg 69%
    01:00 +27°C° 0 mm 2 mps 760 mmHg 67%
    02:00 +27°C° 0 mm 2 mps 760 mmHg 65%
    03:00 +26°C° 0 mm 2 mps 760 mmHg 64%
    04:00 +26°C° 0 mm 2 mps 760 mmHg 63%
    05:00 +26°C° 0 mm 2 mps 760 mmHg 62%
    06:00 +26°C° 0 mm 3 mps 760 mmHg 62%
    07:00 +29°C° 0 mm 2 mps 760 mmHg 53%
    08:00 +31°C° 0 mm 2 mps 760 mmHg 44%
    09:00 +35°C° 0 mm 2 mps 760 mmHg 35%
    10:00 +36°C° 0 mm 3 mps 760 mmHg 33%
    11:00 +37°C° 0 mm 4 mps 760 mmHg 31%
    12:00 +38°C° 0 mm 4 mps 759 mmHg 29%
    13:00 +37°C° 0 mm 5 mps 759 mmHg 32%
    14:00 +36°C° 0 mm 6 mps 759 mmHg 34%
    15:00 +36°C° 0 mm 6 mps 759 mmHg 37%
    16:00 +34°C° 0 mm 6 mps 759 mmHg 42%
    17:00 +33°C° 0 mm 5 mps 759 mmHg 47%
    18:00 +30°C° 0 mm 4 mps 759 mmHg 53%
    19:00 +29°C° 0 mm 3 mps 759 mmHg 58%
    20:00 +28°C° 0 mm 3 mps 760 mmHg 64%
    21:00 +26°C° 0 mm 2 mps 760 mmHg 70%
    22:00 +26°C° 0 mm 2 mps 760 mmHg 67%
    23:00 +26°C° 0 mm 3 mps 760 mmHg 64%

    26 August, Monday

    Time Temperature Precipitation Wind Pressure Humidity
    00:00 +26°C° 0 mm 3 mps 760 mmHg 61%
    01:00 +26°C° 0 mm 3 mps 760 mmHg 61%
    02:00 +26°C° 0 mm 3 mps 760 mmHg 60%
    03:00 +26°C° 0 mm 3 mps 760 mmHg 60%
    04:00 +26°C° 0 mm 3 mps 761 mmHg 61%
    05:00 +26°C° 0 mm 3 mps 761 mmHg 61%
    06:00 +26°C° 0 mm 3 mps 761 mmHg 62%
    07:00 +28°C° 0 mm 4 mps 762 mmHg 55%
    08:00 +32°C° 0 mm 4 mps 762 mmHg 48%
    09:00 +34°C° 0 mm 5 mps 762 mmHg 41%
    10:00 +34°C° 0 mm 6 mps 762 mmHg 40%
    11:00 +35°C° 0 mm 7 mps 762 mmHg 39%
    12:00 +35°C° 0 mm 8 mps 762 mmHg 38%
    13:00 +35°C° 0 mm 8 mps 762 mmHg 40%
    14:00 +34°C° 0 mm 9 mps 762 mmHg 43%
    15:00 +34°C° 0 mm 9 mps 762 mmHg 45%
    16:00 +32°C° 0 mm 9 mps 762 mmHg 49%
    17:00 +31°C° 0 mm 9 mps 762 mmHg 52%
    18:00 +29°C° 0 mm 9 mps 763 mmHg 56%
    19:00 +29°C° 0 mm 9 mps 763 mmHg 58%
    20:00 +28°C° 0 mm 9 mps 764 mmHg 61%
    21:00 +28°C° 0 mm 9 mps 765 mmHg 63%
    22:00 +27°C° 0 mm 8 mps 765 mmHg 65%
    23:00 +26°C° 0 mm 7 mps 765 mmHg 66%

    27 August, Tuesday

    Time Temperature Precipitation Wind Pressure Humidity
    00:00 +26°C° 0 mm 6 mps 765 mmHg 67%
    01:00 +26°C° 0 mm 5 mps 765 mmHg 67%
    02:00 +26°C° 0 mm 5 mps 765 mmHg 67%
    03:00 +26°C° 0 mm 4 mps 765 mmHg 66%
    04:00 +26°C° 0.2 mm 4 mps 765 mmHg 68%
    05:00 +26°C° 0.2 mm 3 mps 765 mmHg 70%
    06:00 +26°C° 0.2 mm 3 mps 765 mmHg 72%
    07:00 +27°C° 0.1 mm 3 mps 765 mmHg 66%
    08:00 +28°C° 0.1 mm 4 mps 764 mmHg 61%
    09:00 +29°C° 0.1 mm 4 mps 764 mmHg 55%
    10:00 +30°C° 0 mm 4 mps 764 mmHg 53%
    11:00 +30°C° 0 mm 5 mps 763 mmHg 51%
    12:00 +32°C° 0 mm 5 mps 762 mmHg 49%
    13:00 +32°C° 0 mm 5 mps 762 mmHg 49%
    14:00 +32°C° 0 mm 5 mps 761 mmHg 48%
    15:00 +32°C° 0 mm 5 mps 761 mmHg 48%
    16:00 +30°C° 0 mm 4 mps 761 mmHg 52%
    17:00 +29°C° 0 mm 4 mps 761 mmHg 55%
    18:00 +28°C° 0 mm 3 mps 761 mmHg 58%
    19:00 +27°C° 0 mm 3 mps 761 mmHg 61%
    20:00 +27°C° 0 mm 3 mps 761 mmHg 63%
    21:00 +26°C° 0 mm 2 mps 761 mmHg 66%
    22:00 +25°C° 0 mm 2 mps 761 mmHg 68%
    23:00 +25°C° 0 mm 2 mps 760 mmHg 70%

    28 August, Wednesday

    Time Temperature Precipitation Wind Pressure Humidity
    00:00 +24°C° 0 mm 1 mps 760 mmHg 72%
    01:00 +24°C° 0 mm 1 mps 760 mmHg 74%
    02:00 +23°C° 0 mm 1 mps 760 mmHg 77%
    03:00 +23°C° 0 mm 1 mps 760 mmHg 79%
    04:00 +24°C° 0 mm 1 mps 760 mmHg 77%
    05:00 +24°C° 0 mm 1 mps 760 mmHg 75%
    06:00 +25°C° 0 mm 1 mps 760 mmHg 73%
    07:00 +26°C° 0 mm 2 mps 760 mmHg 65%
    08:00 +28°C° 0 mm 2 mps 760 mmHg 57%
    09:00 +29°C° 0 mm 3 mps 760 mmHg 49%
    10:00 +30°C° 0 mm 4 mps 760 mmHg 45%
    11:00 +32°C° 0 mm 4 mps 760 mmHg 41%
    12:00 +33°C° 0 mm 5 mps 760 mmHg 37%
    13:00 +33°C° 0 mm 6 mps 760 mmHg 40%
    14:00 +33°C° 0 mm 6 mps 760 mmHg 44%
    15:00 +32°C° 0 mm 7 mps 760 mmHg 47%
    16:00 +30°C° 0 mm 6 mps 760 mmHg 51%
    17:00 +29°C° 0 mm 6 mps 760 mmHg 54%
    18:00 +28°C° 0 mm 6 mps 761 mmHg 57%
    19:00 +28°C° 0 mm 5 mps 761 mmHg 60%
    20:00 +27°C° 0 mm 5 mps 762 mmHg 62%
    21:00 +26°C° 0 mm 4 mps 762 mmHg 64%
    22:00 +26°C° 0 mm 3 mps 762 mmHg 63%
    23:00 +26°C° 0 mm 3 mps 763 mmHg 62%
    Show more